Location: Los Gatos B&B
(42.6926°N, 77.0646°W)
Time: 10:38:38
(UTC-05:00)

SL-16 R/B - Visible Passes

Search period start: 06 February 2016 00:00
Search period end: 16 February 2016 00:00
Orbit: 840 x 850 km, 71.0° (Epoch: 05 February)

Date Brightness Start Highest point End Pass type
(mag) Time Alt. Az. Time Alt. Az. Time Alt. Az.
06 Feb 4.9 03:18:12 11° ESE 03:18:12 11° ESE 03:18:35 10° ESE visible
06 Feb 2.8 05:00:11 40° SSW 05:00:11 40° SSW 05:03:59 10° S visible
06 Feb 2.7 18:01:43 10° S 18:06:56 39° ESE 18:12:12 10° NE visible
06 Feb 3.8 19:46:01 10° WSW 19:51:06 33° NW 19:56:13 10° N visible
07 Feb 3.7 04:47:52 23° S 04:47:52 23° S 04:49:57 10° S visible
07 Feb 2.8 17:47:43 10° S 17:52:54 38° ESE 17:58:07 10° NE visible
07 Feb 3.7 19:31:54 10° WSW 19:37:02 34° NW 19:42:12 10° N visible
08 Feb 4.5 04:35:35 12° S 04:35:35 12° S 04:35:56 10° S visible
08 Feb 3.7 19:17:48 10° WSW 19:22:58 35° NW 19:28:11 10° N visible
09 Feb 3.7 19:03:42 10° WSW 19:08:54 36° WNW 19:14:09 10° N visible
10 Feb 3.6 18:49:36 10° SW 18:54:51 37° WNW 19:00:07 10° N visible
11 Feb 3.6 18:35:30 10° SW 18:40:47 38° WNW 18:46:05 10° N visible
12 Feb 3.6 18:21:24 10° SW 18:26:43 39° WNW 18:32:03 10° N visible
13 Feb 3.6 18:07:19 10° SW 18:12:39 40° WNW 18:18:01 10° NNE visible
